When you browse on this site, cookies collect data to enhance your experience and personalize the content and advertising you see.
Visit our Privacy Policy to learn more. By continuing to use the site, you agree to this use of cookies and data.
  • In Lithuania
  • List of Countries
  • For 7 days
  • Water Temperature
  • Satellite Maps
  • Weather Map
  • Weather Widgets
  • user-avatar
    Login

    Hourly Weather Starica

    Today, 27 March, Wednesday

    Time Temperature Precipitation Wind Pressure Humidity
    00:00 +5°C° 0 mm 5 mps 762 mmHg 61%
    01:00 +4°C° 0 mm 4 mps 762 mmHg 64%
    02:00 +4°C° 0 mm 4 mps 762 mmHg 66%
    03:00 +3°C° 0 mm 4 mps 762 mmHg 69%
    04:00 +1°C° 0 mm 4 mps 762 mmHg 71%
    05:00 +1°C° 0 mm 4 mps 762 mmHg 73%
    06:00 +1°C° 0 mm 4 mps 761 mmHg 74%
    07:00 +2°C° 0 mm 5 mps 761 mmHg 68%
    08:00 +5°C° 0 mm 5 mps 761 mmHg 61%
    09:00 +5°C° 0 mm 6 mps 761 mmHg 55%
    10:00 +8°C° 0 mm 6 mps 761 mmHg 50%
    11:00 +9°C° 0 mm 6 mps 761 mmHg 46%
    12:00 +10°C° 0 mm 6 mps 760 mmHg 42%
    13:00 +12°C° 0 mm 5 mps 760 mmHg 41%
    14:00 +13°C° 0 mm 5 mps 760 mmHg 39%
    15:00 +13°C° 0 mm 5 mps 759 mmHg 37%
    16:00 +12°C° 0 mm 4 mps 759 mmHg 41%
    17:00 +12°C° 0 mm 3 mps 759 mmHg 44%
    18:00 +11°C° 0 mm 3 mps 759 mmHg 47%
    19:00 +10°C° 0 mm 3 mps 759 mmHg 50%
    20:00 +9°C° 0 mm 3 mps 759 mmHg 53%
    21:00 +9°C° 0 mm 3 mps 759 mmHg 56%
    22:00 +8°C° 0 mm 3 mps 759 mmHg 58%
    23:00 +8°C° 0 mm 3 mps 759 mmHg 60%

    Tomorrow, 28 March, Thursday

    Time Temperature Precipitation Wind Pressure Humidity
    00:00 +8°C° 0 mm 3 mps 759 mmHg 62%
    01:00 +7°C° 0 mm 3 mps 759 mmHg 65%
    02:00 +7°C° 0 mm 3 mps 759 mmHg 68%
    03:00 +7°C° 0 mm 3 mps 759 mmHg 72%
    04:00 +5°C° 0 mm 3 mps 759 mmHg 79%
    05:00 +5°C° 0 mm 3 mps 759 mmHg 87%
    06:00 +4°C° 0 mm 3 mps 759 mmHg 94%
    07:00 +5°C° 0 mm 4 mps 760 mmHg 85%
    08:00 +7°C° 0 mm 4 mps 760 mmHg 76%
    09:00 +8°C° 0 mm 4 mps 760 mmHg 66%
    10:00 +8°C° 0 mm 5 mps 760 mmHg 59%
    11:00 +9°C° 0 mm 7 mps 760 mmHg 51%
    12:00 +9°C° 0 mm 8 mps 760 mmHg 44%
    13:00 +9°C° 0 mm 8 mps 760 mmHg 39%
    14:00 +9°C° 0 mm 8 mps 760 mmHg 35%
    15:00 +9°C° 0 mm 8 mps 760 mmHg 30%
    16:00 +8°C° 0 mm 7 mps 760 mmHg 39%
    17:00 +6°C° 0 mm 7 mps 761 mmHg 47%
    18:00 +5°C° 0 mm 7 mps 761 mmHg 55%
    19:00 +4°C° 0 mm 6 mps 762 mmHg 62%
    20:00 +3°C° 0 mm 6 mps 762 mmHg 68%
    21:00 +2°C° 0 mm 5 mps 763 mmHg 74%
    22:00 +1°C° 0 mm 5 mps 763 mmHg 74%
    23:00 +1°C° 0 mm 5 mps 763 mmHg 75%

    Day after tomorrow, 29 March, Friday

    Time Temperature Precipitation Wind Pressure Humidity
    00:00 0°C° 0 mm 5 mps 764 mmHg 75%
    01:00 -1°C° 0 mm 5 mps 764 mmHg 77%
    02:00 -1°C° 0 mm 4 mps 764 mmHg 78%
    03:00 -2°C° 0 mm 4 mps 765 mmHg 79%
    04:00 -1°C° 0 mm 3 mps 765 mmHg 81%
    05:00 -2°C° 0 mm 3 mps 765 mmHg 83%
    06:00 -2°C° 0 mm 3 mps 765 mmHg 85%
    07:00 -2°C° 0 mm 4 mps 765 mmHg 76%
    08:00 0°C° 0 mm 4 mps 765 mmHg 67%
    09:00 +1°C° 0 mm 4 mps 766 mmHg 58%
    10:00 +3°C° 0 mm 4 mps 765 mmHg 52%
    11:00 +4°C° 0 mm 4 mps 765 mmHg 47%
    12:00 +5°C° 0 mm 4 mps 765 mmHg 41%
    13:00 +5°C° 0 mm 4 mps 765 mmHg 40%
    14:00 +5°C° 0 mm 4 mps 765 mmHg 39%
    15:00 +5°C° 0 mm 4 mps 765 mmHg 38%
    16:00 +5°C° 0.1 mm 3 mps 765 mmHg 42%
    17:00 +4°C° 0.1 mm 3 mps 765 mmHg 45%
    18:00 +4°C° 0.1 mm 3 mps 765 mmHg 49%
    19:00 +3°C° 0 mm 3 mps 765 mmHg 52%
    20:00 +3°C° 0 mm 2 mps 766 mmHg 55%
    21:00 +3°C° 0 mm 2 mps 766 mmHg 58%
    22:00 +2°C° 0 mm 2 mps 766 mmHg 59%
    23:00 +2°C° 0 mm 2 mps 766 mmHg 61%

    30 March, Saturday

    Time Temperature Precipitation Wind Pressure Humidity
    00:00 +1°C° 0 mm 2 mps 766 mmHg 62%
    01:00 +1°C° 0 mm 2 mps 766 mmHg 66%
    02:00 -1°C° 0 mm 2 mps 766 mmHg 69%
    03:00 -1°C° 0 mm 2 mps 766 mmHg 72%
    04:00 -1°C° 0 mm 2 mps 766 mmHg 74%
    05:00 -2°C° 0 mm 2 mps 766 mmHg 76%
    06:00 -2°C° 0 mm 2 mps 767 mmHg 77%
    07:00 +1°C° 0 mm 2 mps 767 mmHg 70%
    08:00 +2°C° 0 mm 2 mps 767 mmHg 62%
    09:00 +2°C° 0 mm 3 mps 767 mmHg 55%
    10:00 +3°C° 0 mm 3 mps 767 mmHg 49%
    11:00 +4°C° 0 mm 4 mps 766 mmHg 43%
    12:00 +6°C° 0 mm 5 mps 766 mmHg 37%
    13:00 +6°C° 0 mm 5 mps 766 mmHg 35%
    14:00 +6°C° 0 mm 5 mps 765 mmHg 33%
    15:00 +7°C° 0 mm 5 mps 765 mmHg 32%
    16:00 +6°C° 0 mm 4 mps 765 mmHg 35%
    17:00 +6°C° 0 mm 4 mps 765 mmHg 39%
    18:00 +7°C° 0 mm 3 mps 764 mmHg 42%
    19:00 +6°C° 0 mm 2 mps 765 mmHg 45%
    20:00 +6°C° 0 mm 2 mps 765 mmHg 47%
    21:00 +6°C° 0 mm 2 mps 765 mmHg 50%
    22:00 +5°C° 0 mm 2 mps 765 mmHg 53%
    23:00 +4°C° 0 mm 3 mps 765 mmHg 55%

    31 March, Sunday

    Time Temperature Precipitation Wind Pressure Humidity
    00:00 +4°C° 0 mm 3 mps 765 mmHg 58%
    01:00 +4°C° 0 mm 3 mps 764 mmHg 65%
    02:00 +3°C° 0 mm 3 mps 764 mmHg 71%
    03:00 +3°C° 0 mm 4 mps 764 mmHg 78%
    04:00 +3°C° 0 mm 4 mps 764 mmHg 79%
    05:00 +4°C° 0 mm 4 mps 764 mmHg 80%
    06:00 +4°C° 0 mm 4 mps 764 mmHg 82%
    07:00 +5°C° 0 mm 4 mps 764 mmHg 79%
    08:00 +6°C° 0 mm 4 mps 765 mmHg 76%
    09:00 +7°C° 0 mm 4 mps 765 mmHg 73%
    10:00 +10°C° 0 mm 4 mps 765 mmHg 67%
    11:00 +11°C° 0 mm 4 mps 765 mmHg 62%
    12:00 +13°C° 0 mm 3 mps 765 mmHg 56%
    13:00 +13°C° 0 mm 3 mps 765 mmHg 55%
    14:00 +14°C° 0 mm 2 mps 765 mmHg 55%
    15:00 +14°C° 0 mm 2 mps 764 mmHg 54%
    16:00 +14°C° 0 mm 2 mps 764 mmHg 56%
    17:00 +13°C° 0 mm 1 mps 765 mmHg 58%
    18:00 +13°C° 0 mm 1 mps 765 mmHg 61%
    19:00 +12°C° 0 mm 1 mps 765 mmHg 64%
    20:00 +10°C° 0 mm 2 mps 765 mmHg 66%
    21:00 +9°C° 0 mm 3 mps 766 mmHg 69%
    22:00 +8°C° 0 mm 3 mps 766 mmHg 72%
    23:00 +8°C° 0 mm 3 mps 766 mmHg 75%

    1 April, Monday

    Time Temperature Precipitation Wind Pressure Humidity
    00:00 +7°C° 0 mm 3 mps 766 mmHg 77%
    01:00 +7°C° 0 mm 3 mps 766 mmHg 73%
    02:00 +5°C° 0 mm 3 mps 766 mmHg 68%
    03:00 +6°C° 0 mm 2 mps 766 mmHg 64%
    04:00 +5°C° 0 mm 2 mps 766 mmHg 62%
    05:00 +5°C° 0 mm 2 mps 766 mmHg 60%
    06:00 +5°C° 0 mm 2 mps 766 mmHg 58%
    07:00 +7°C° 0 mm 3 mps 766 mmHg 53%
    08:00 +7°C° 0 mm 4 mps 766 mmHg 47%
    09:00 +9°C° 0 mm 5 mps 766 mmHg 42%
    10:00 +10°C° 0 mm 6 mps 766 mmHg 39%
    11:00 +13°C° 0 mm 6 mps 765 mmHg 36%
    12:00 +14°C° 0 mm 7 mps 765 mmHg 33%
    13:00 +14°C° 0 mm 7 mps 764 mmHg 33%
    14:00 +15°C° 0 mm 8 mps 764 mmHg 33%
    15:00 +15°C° 0 mm 8 mps 763 mmHg 33%
    16:00 +14°C° 0 mm 7 mps 763 mmHg 34%
    17:00 +12°C° 0 mm 7 mps 762 mmHg 35%
    18:00 +11°C° 0 mm 6 mps 762 mmHg 36%
    19:00 +10°C° 0 mm 6 mps 762 mmHg 37%
    20:00 +9°C° 0 mm 6 mps 762 mmHg 39%
    21:00 +8°C° 0 mm 6 mps 762 mmHg 40%
    22:00 +8°C° 0 mm 6 mps 762 mmHg 43%
    23:00 +8°C° 0 mm 6 mps 761 mmHg 47%
    Show more